Date String (YYYY-MM-DD hh:mm:ss) UTC,Instrument flags,Ambient pressure (hPa),Sample flow (lpm),Bypass flow (lpm),Sample temperature (°C),Ambient temperature (°C),ASC tube jacket temperature (°C),LED temperature (°C),Box temperature (°C),Sample RH (%),Span deviation,Mass concentration (μg/m³),Mass concentration (μg/m³),Mass concentration (μg/m³)
DateTimeUTC,F1_M11,P_M11,Q1_M11,Q2_M11,T1_M11,T2_M11,T3_M11,T4_M11,T5_M11,U1_M11,ZSPAN_M11,X2_M11,X0_M11,X1_M11
2022-08-15 13:00:00,,0829.2,5.00,0.00,31.6,28.1,00.0,39.7,32.1,34.6,0000.0,0004.70,0010.12,0004.09
2022-08-15 13:01:00,,0829.2,4.99,0.00,31.7,28.2,00.0,39.7,32.1,34.6,0000.0,0004.73,0010.43,0004.07
2022-08-15 13:02:00,,0829.0,5.00,0.00,31.6,28.4,00.0,39.7,32.1,34.5,0000.0,0004.72,0010.47,0004.04
2022-08-15 13:03:00,,0828.8,4.99,0.00,31.6,28.5,00.0,39.7,32.2,34.6,0000.0,0004.68,0010.02,0004.02
2022-08-15 13:04:00,,0829.2,4.99,0.00,31.6,28.6,00.0,39.8,32.2,34.5,0000.0,0004.61,0010.02,0004.01
2022-08-15 13:05:00,,0829.3,5.01,0.00,31.5,28.7,00.0,39.8,32.2,34.4,0000.0,0004.63,0009.55,0003.99
2022-08-15 13:06:00,,0829.2,5.00,0.00,31.5,28.8,00.0,39.8,32.2,34.5,0000.0,0004.64,0009.55,0003.97
2022-08-15 13:07:00,,0829.1,4.99,0.00,31.5,28.9,00.0,39.8,32.2,34.4,0000.0,0004.65,0009.44,0003.94
2022-08-15 13:08:00,,0829.1,5.01,0.00,31.5,28.9,00.0,39.8,32.3,34.4,0000.0,0004.64,0009.51,0003.92
2022-08-15 13:09:00,,0828.8,5.00,0.00,31.4,29.0,00.0,39.8,32.3,34.6,0000.0,0004.67,0009.82,0003.91
2022-08-15 13:10:00,,0829.0,4.99,0.00,31.4,29.1,00.0,39.8,32.3,34.8,0000.0,0004.75,0010.07,0003.92
2022-08-15 13:11:00,,0829.1,5.01,0.00,31.4,29.1,00.0,39.8,32.3,35.0,0000.0,0004.81,0010.16,0003.94
2022-08-15 13:12:00,,0828.8,4.98,0.00,31.5,29.0,00.0,39.8,32.4,34.6,0000.0,0004.82,0010.66,0003.95
2022-08-15 13:13:00,,0828.8,5.01,0.00,31.6,28.4,00.0,39.8,32.2,34.4,0000.0,0004.88,0010.86,0003.96
2022-08-15 13:14:00,,0828.9,4.99,0.00,31.5,28.0,00.0,39.7,32.1,34.4,0000.0,0004.89,0011.05,0003.97
2022-08-15 13:15:00,,0828.9,4.99,0.00,31.4,27.9,00.0,39.7,32.0,34.7,0000.0,0004.95,0011.57,0003.98
2022-08-15 13:16:00,,0828.9,5.02,0.00,31.3,27.9,00.0,39.7,32.0,34.8,0000.0,0005.08,0012.07,0004.00
2022-08-15 13:17:00,,0828.8,4.99,0.00,31.3,28.0,00.0,39.7,31.9,35.2,0000.0,0005.14,0012.31,0004.00
2022-08-15 13:18:00,,0828.8,4.99,0.00,31.4,28.1,00.0,39.7,32.1,35.2,0000.0,0005.18,0013.86,0004.02
2022-08-15 13:19:00,,0828.9,5.02,0.00,31.6,28.3,00.0,39.7,32.2,34.7,0000.0,0005.22,0014.20,0004.02
2022-08-15 13:20:00,,0828.8,4.99,0.00,31.8,28.4,00.0,39.7,32.3,34.0,0000.0,0005.24,0013.80,0004.01
2022-08-15 13:21:00,,0828.8,5.02,0.00,31.8,28.5,00.0,39.7,32.3,33.9,0000.0,0005.23,0013.82,0003.98
2022-08-15 13:22:00,,0828.9,5.00,0.00,31.9,28.6,00.0,39.7,32.3,34.1,0000.0,0005.17,0013.69,0003.95
2022-08-15 13:23:00,,0828.9,4.99,0.00,31.8,28.7,00.0,39.8,32.3,34.0,0000.0,0005.15,0013.28,0003.91
2022-08-15 13:24:00,,0828.9,5.01,0.00,31.8,28.8,00.0,39.8,32.3,33.7,0000.0,0005.19,0013.34,0003.90
2022-08-15 13:25:00,,0828.9,5.00,0.00,31.8,28.9,00.0,39.9,32.3,33.2,0000.0,0005.17,0013.47,0003.87
2022-08-15 13:26:00,,0828.9,4.99,0.00,31.8,28.9,00.0,39.9,32.3,33.0,0000.0,0005.15,0013.04,0003.85
2022-08-15 13:27:00,,0829.0,5.00,0.00,31.7,29.0,00.0,39.9,32.3,33.6,0000.0,0005.03,0012.55,0003.81
2022-08-15 13:28:00,,0829.0,5.02,0.00,31.7,29.1,00.0,39.9,32.4,33.6,0000.0,0004.92,0012.25,0003.78
2022-08-15 13:29:00,,0829.0,5.00,0.00,31.7,29.1,00.0,40.0,32.4,34.2,0000.0,0004.84,0010.96,0003.75
2022-08-15 13:30:00,,0829.1,4.99,0.00,31.6,28.7,00.0,39.9,32.2,34.2,0000.0,0004.81,0011.29,0003.75
2022-08-15 13:31:00,,0829.1,5.01,0.00,31.5,27.9,00.0,39.9,32.0,34.0,0000.0,0004.82,0011.93,0003.74
2022-08-15 13:32:00,,0829.1,5.00,0.00,31.4,27.5,00.0,39.8,31.9,34.3,0000.0,0004.77,0012.44,0003.73
2022-08-15 13:33:00,,0829.0,5.00,0.00,31.2,27.4,00.0,39.8,31.8,34.5,0000.0,0004.71,0012.31,0003.72
2022-08-15 13:34:00,,0829.0,4.99,0.00,31.1,27.4,00.0,39.7,31.7,35.2,0000.0,0004.67,0012.33,0003.71
2022-08-15 13:35:00,,0829.0,5.00,0.00,31.2,27.6,00.0,39.7,31.9,35.3,0000.0,0004.57,0012.57,0003.68
2022-08-15 13:36:00,,0829.0,5.00,0.00,31.4,27.7,00.0,39.6,32.0,34.7,0000.0,0004.51,0012.52,0003.66
2022-08-15 13:37:00,,0829.1,5.00,0.00,31.6,27.9,00.0,39.6,32.1,33.9,0000.0,0004.46,0012.20,0003.65
2022-08-15 13:38:00,,0829.1,5.01,0.00,31.6,28.0,00.0,39.6,32.1,33.8,0000.0,0004.44,0011.94,0003.64
2022-08-15 13:39:00,,0829.1,4.99,0.00,31.6,28.2,00.0,39.6,32.1,33.9,0000.0,0004.40,0011.70,0003.62
2022-08-15 13:40:00,,0829.1,5.00,0.00,31.6,28.3,00.0,39.7,32.1,33.6,0000.0,0004.35,0011.56,0003.60
2022-08-15 13:41:00,,0829.1,5.00,0.00,31.6,28.5,00.0,39.7,32.1,33.5,0000.0,0004.32,0010.43,0003.57
2022-08-15 13:42:00,,0829.1,5.00,0.00,31.6,28.6,00.0,39.7,32.1,33.4,0000.0,0004.25,0009.67,0003.55
2022-08-15 13:43:00,,0829.1,4.99,0.00,31.5,28.7,00.0,39.7,32.1,33.6,0000.0,0004.27,0009.10,0003.55
2022-08-15 13:44:00,,0829.1,5.00,0.00,31.5,28.7,00.0,39.8,32.2,33.9,0000.0,0004.28,0009.43,0003.53
2022-08-15 13:45:00,,0829.1,5.02,0.00,31.5,28.8,00.0,39.8,32.2,34.3,0000.0,0004.26,0009.56,0003.53
2022-08-15 13:46:00,,0829.1,5.00,0.00,31.4,28.9,00.0,39.8,32.2,34.1,0000.0,0004.28,0009.32,0003.52
2022-08-15 13:47:00,,0829.1,4.99,0.00,31.4,28.9,00.0,39.8,32.2,34.1,0000.0,0004.29,0009.20,0003.53
2022-08-15 13:48:00,,0829.1,5.00,0.00,31.4,29.0,00.0,39.8,32.2,33.9,0000.0,0004.28,0009.23,0003.52
2022-08-15 13:49:00,,0829.1,5.00,0.00,31.4,29.0,00.0,39.8,32.3,34.2,0000.0,0004.29,0009.26,0003.50
2022-08-15 13:50:00,,0829.1,4.99,0.00,31.3,29.1,00.0,39.8,32.3,34.3,0000.0,0004.31,0010.03,0003.50
2022-08-15 13:51:00,,0829.1,5.01,0.00,31.3,28.6,00.0,39.8,32.1,34.0,0000.0,0004.32,0010.67,0003.49
2022-08-15 13:52:00,,0829.1,5.00,0.00,31.2,27.8,00.0,39.7,31.9,34.1,0000.0,0004.29,0010.72,0003.46
2022-08-15 13:53:00,,0829.0,5.00,0.00,31.1,27.5,00.0,39.6,31.8,34.0,0000.0,0004.25,0010.75,0003.44
2022-08-15 13:54:00,,0829.1,5.01,0.00,30.9,27.4,00.0,39.6,31.8,34.2,0000.0,0004.21,0010.52,0003.41
2022-08-15 13:55:00,,0829.1,4.99,0.00,30.8,27.5,00.0,39.5,31.7,34.8,0000.0,0004.16,0010.45,0003.39
2022-08-15 13:56:00,,0829.0,5.02,0.00,30.8,27.6,00.0,39.5,31.7,34.9,0000.0,0004.09,0010.12,0003.36
2022-08-15 13:57:00,,0829.1,4.99,0.00,30.7,27.8,00.0,39.5,31.8,34.5,0000.0,0004.05,0009.74,0003.33
2022-08-15 13:58:00,,0829.1,4.99,0.00,30.7,28.0,00.0,39.4,31.7,34.6,0000.0,0004.00,0009.48,0003.30
2022-08-15 13:59:00,,0829.1,5.01,0.00,30.7,28.1,00.0,39.4,31.8,35.0,0000.0,0003.98,0009.37,0003.29
